CW7779 Weather Reports


Display with metric or nautical units.
time (UTC)temp
F
wind
direction
speed
MPH
gust
MPH
rain 1hr
in
rain 24hr
in
rain mn
in
humidity
%
barometer
mb
20260507014503 71 221 3.0 15.0 0.00 0.00 0.00 84 1014.1
20260507013006 71 207 3.0 10.0 0.00 0.00 0.00 83 1013.9
20260507011504 71 178 6.0 12.0 0.00 0.00 0.00 83 1013.9
20260507010056 71 226 6.0 12.0 0.00 0.00 0.00 82 1013.8
20260507004556 71 238 6.0 17.0 0.00 0.00 0.00 82 1013.9
20260507003054 71 227 7.0 14.0 0.00 0.00 0.00 82 1013.6
20260507001610 71 200 5.0 14.0 0.00 0.00 0.00 81 1014.0
20260507000054 71 227 6.0 14.0 0.00 0.00 0.00 80 1013.9
20260506234601 72 205 4.0 14.0 0.00 0.00 0.00 80 1013.5
20260506233056 72 200 5.0 15.0 0.00 0.00 0.00 78 1013.5
20260506231554 73 232 5.0 16.0 0.00 0.00 0.00 77 1013.7
20260506230052 74 203 6.0 18.0 0.00 0.00 0.00 75 1013.8
20260506224605 74 198 4.0 14.0 0.00 0.00 0.00 74 1013.6
20260506223057 74 178 4.0 14.0 0.00 0.00 0.00 75 1013.5
20260506221551 73 155 6.0 18.0 0.00 0.00 0.00 76 1013.6
20260506214550 73 198 7.0 19.0 0.00 0.00 0.00 74 1013.6
20260506213049 73 202 6.0 15.0 0.00 0.00 0.00 74 1013.9
20260506211555 73 218 7.0 17.0 0.00 0.00 0.00 73 1013.1
20260506210047 74 173 8.0 16.0 0.00 0.00 0.00 71 1014.1
20260506204547 76 269 7.0 17.0 0.00 0.00 0.00 65 1014.5
20260506203054 77 210 9.0 18.0 0.00 0.00 0.00 62 1014.4
20260506201546 77 212 10.0 17.0 0.00 0.00 0.00 60 1014.4
20260506200044 77 180 6.0 18.0 0.00 0.00 0.00 66 1014.6
20260506194546 77 195 7.0 19.0 0.00 0.00 0.00 65 1014.6
20260506193050 77 226 8.0 21.0 0.00 0.00 0.00 66 1014.9
20260506191543 78 186 5.0 17.0 0.00 0.00 0.00 66 1015.2
20260506190043 78 213 8.0 20.0 0.00 0.00 0.00 65 1015.4
20260506184541 77 219 5.0 18.0 0.00 0.00 0.00 67 1015.6
20260506183042 75 221 4.0 15.0 0.00 0.00 0.00 70 1015.6
20260506181554 75 196 5.0 20.0 0.00 0.00 0.00 74 1015.6
20260506180040 75 232 9.0 20.0 0.00 0.00 0.00 73 1015.6
20260506174537 76 178 9.0 17.0 0.00 0.00 0.00 71 1016.0
20260506173047 76 223 7.0 16.0 0.00 0.00 0.00 71 1016.0
20260506171536 76 207 8.0 17.0 0.00 0.00 0.00 71 1016.2
20260506170035 77 228 7.0 15.0 0.00 0.00 0.00 69 1016.2
20260506164535 78 208 9.0 17.0 0.00 0.00 0.00 69 1016.2
20260506163035 77 193 8.0 17.0 0.00 0.00 0.00 69 1016.6
20260506161533 77 173 6.0 17.0 0.00 0.00 0.00 71 1016.7
20260506160038 76 199 7.0 16.0 0.00 0.00 0.00 71 1016.6
20260506154530 76 246 8.0 14.0 0.00 0.00 0.00 71 1016.6
20260506153030 77 217 7.0 15.0 0.00 0.00 0.00 70 1016.8
20260506151530 76 186 8.0 15.0 0.00 0.00 0.00 71 1016.7
20260506150027 76 204 8.0 15.0 0.00 0.00 0.00 70 1017.0
20260506144526 76 219 4.0 16.0 0.00 0.00 0.00 70 1016.8
20260506143025 75 198 3.0 11.0 0.00 0.00 0.00 72 1016.7
20260506141525 76 186 5.0 11.0 0.00 0.00 0.00 70 1016.6
20260506140024 75 217 6.0 16.0 0.00 0.00 0.00 70 1016.6
20260506134524 75 203 4.0 13.0 0.00 0.00 0.00 72 1016.5
20260506133020 74 206 7.0 16.0 0.00 0.00 0.00 72 1016.7
20260506131538 74 240 5.0 14.0 0.00 0.00 0.00 72 1016.7
20260506130029 73 214 3.0 12.0 0.00 0.00 0.00 73 1016.6
20260506124514 73 180 5.0 11.0 0.00 0.00 0.00 74 1016.2
20260506123012 72 190 4.0 14.0 0.00 0.00 0.00 74 1016.3
20260506121510 72 238 3.0 10.0 0.00 0.00 0.00 74 1016.2
20260506120014 71 203 5.0 9.0 0.00 0.00 0.00 77 1016.1
20260506114506 70 4.0 0.0 0.00 0.00 0.00 80 1016.4
20260506113001 70 208 3.0 8.0 0.00 0.00 0.00 81 1016.3
20260506111501 69 209 3.0 7.0 0.00 0.00 0.00 80 1016.3
20260506110105 69 193 3.0 9.0 0.00 0.00 0.00 80 1016.2
20260506104559 69 205 3.0 7.0 0.00 0.00 0.00 80 1016.1
20260506103058 69 207 3.0 7.0 0.00 0.00 0.00 80 1015.9
20260506101558 69 226 1.0 7.0 0.00 0.00 0.00 79 1015.8
20260506100056 69 224 5.0 9.0 0.00 0.00 0.00 79 1015.9
20260506094621 68 194 2.0 9.0 0.00 0.00 0.00 80 1015.9
20260506093055 68 206 4.0 9.0 0.00 0.00 0.00 79 1016.1
20260506091555 68 211 3.0 9.0 0.00 0.00 0.00 80 1015.8
20260506090054 69 184 2.0 6.0 0.00 0.00 0.00 78 1015.6
20260506084553 69 145 2.0 9.0 0.00 0.00 0.00 78 1015.9
20260506083053 68 176 2.0 10.0 0.00 0.00 0.00 78 1015.9
20260506081555 68 185 4.0 8.0 0.00 0.00 0.00 79 1015.7
20260506073049 68 220 4.0 8.0 0.00 0.00 0.00 80 1016.0
20260506071549 67 203 3.0 7.0 0.00 0.00 0.00 81 1016.2
20260506061545 67 220 2.0 5.0 0.00 0.00 0.00 79 1016.3
20260506044536 68 203 1.0 7.0 0.00 0.00 0.00 72 1017.3
20260506043035 68 138 3.0 8.0 0.00 0.00 0.00 72 1017.5
20260506041533 68 207 3.0 11.0 0.00 0.00 0.00 71 1017.7
20260506040032 68 358 4.0 9.0 0.00 0.00 0.00 72 1017.7
20260506034534 67 196 3.0 7.0 0.00 0.00 0.00 74 1017.7
20260506033031 68 202 2.0 7.0 0.00 0.00 0.00 74 1017.7
20260506031531 68 239 2.0 7.0 0.00 0.00 0.00 73 1017.7
20260506030035 68 236 0.0 10.0 0.00 0.00 0.00 74 1017.7
20260506024542 68 223 1.0 7.0 0.00 0.00 0.00 74 1017.7
20260506023031 68 211 2.0 7.0 0.00 0.00 0.00 74 1017.7
20260506021529 68 210 2.0 6.0 0.00 0.00 0.00 73 1017.7
20260506020029 68 176 4.0 8.0 0.00 0.00 0.00 73 1017.7